User: anonymous   Login
Location: Raven Hill Discovery Center
(45.1336°N, 85.0553°W)
Time: 20:36:15
(UTC-04:00)
Language:

Cosmos 1470 - Orbit

View from above orbital plane
View from above orbital plane
View from above satellite
View from above satellite

Ground track
Ground track

The orbit data is extracted from the following two-line orbital elements,

1 14147U 83061A   14297.37926090  .00005203  00000-0  34133-3 0  1195
2 14147 082.5037 266.1704 0014640 016.7264 343.4443 15.07390335458953
Epoch (UTC): 24 October 2014 09:06:08
Eccentricity: 0.0014640
inclination: 82.5037°
perigee height: 534 km
apogee height: 554 km
right ascension of ascending node: 266.1704°
argument of perigee: 16.7264°
revolutions per day: 15.07390335
mean anomaly at epoch: 343.4443°
orbit number at epoch: 45895

The dashed part of the orbit path shows where the satellite is in the earth's shadow,  

DLR